CAPE
0 0 0 0 0 0 0 0 0 0 0 0 0 0 0 0 0 0 0 0 0 0 0 0 0 0 0 0 0 0 1 1 1 3 3 6 5 5
0 0 0 0 0 0 0 0 0 0 0 0 0 0 0 0 0 0 0 0 0 0 0 0 0 0 0 0 0 0 0 0 3 2 3 6 7 3
0 0 0 0 0 0 0 0 0 0 0 0 0 0 0 0 0 0 0 0 0 0 0 0 0 0 0 0 0 0 0 0 2 2 3 5 3 6
0 0 0 0 0 0 0 0 0 0 0 0 0 0 0 0 0 0 0 0 0 0 0 0 0 0 0 0 0 0 0 0 1 4 4 10 13 7
0 0 0 0 0 0 0 0 0 0 0 0 0 0 0 0 0 0 0 0 0 0 0 0 0 0 0 0 0 0 0 0 2 5 6 9 9 13
0 0 0 0 0 0 0 0 0 0 0 0 0 0 0 0 0 0 0 0 0 0 0 0 0 0 0 0 0 0 0 0 0 0 0 0 4 7
0 0 0 0 0 0 0 0 0 0 0 0 0 0 0 0 0 0 0 0 0 0 0 0 0 0 0 0 0 0 0 0 0 0 0 0 1 9
1 0 0 3 0 0 0 0 0 0 0 0 0 0 0 0 0 0 0 0 0 0 0 0 0 0 0 0 0 0 0 0 0 0 0 17 14 12
0 0 1 7 0 0 4 1 0 0 0 0 0 0 0 0 0 0 0 0 0 0 0 0 0 0 0 0 0 0 0 0 0 5 17 11 24 30
0 0 0 3 0 0 0 0 0 0 0 0 0 0 0 0 0 0 0 0 0 0 0 0 0 0 0 0 0 0 0 0 0 2 5 7 18 5
1 1 0 0 0 0 0 0 0 0 0 0 0 0 0 0 0 0 0 0 0 0 0 0 0 0 1 1 0 3 1 1 0 0 0 1 12 1
2 0 1 0 0 2 0 0 0 0 0 0 0 0 0 0 0 0 0 0 0 0 0 1 2 2 1 0 0 0 0 3 9 2 0 1 7 9
4 3 0 1 0 0 4 0 0 0 0 0 0 0 0 0 0 0 0 0 0 2 0 2 1 1 1 1 0 5 5 5 5 0 2 3 3 1
10 1 0 4 0 3 0 0 0 0 0 0 0 0 0 0 0 0 0 0 0 1 0 2 2 2 4 4 9 2 4 2 1 2 6 5 7 0
0 0 0 0 0 3 0 0 0 0 0 0 0 0 0 0 0 0 0 0 2 0 9 2 1 4 4 14 7 12 8 7 8 14 15 9 4 11
7 1 2 2 0 0 0 0 0 0 0 0 0 0 0 0 0 0 3 0 0 2 0 0 1 0 6 13 3 5 17 17 17 22 4 6 8 0
3 4 0 0 0 0 0 0 0 0 0 0 0 0 0 0 2 2 0 0 3 0 2 2 1 3 11 6 20 7 10 7 11 6 0 2 0 1
0 0 0 0 0 0 0 0 0 0 0 0 0 0 0 2 1 0 1 1 2 1 5 1 0 4 14 13 3 4 6 3 10 17 10 0 0 1
0 0 0 0 0 0 0 0 0 0 0 0 0 0 2 1 3 1 0 3 3 1 5 4 2 0 4 4 3 0 2 10 8 1 1 0 1 1
0 0 0 0 0 0 0 0 0 0 0 0 0 0 0 2 1 2 0 3 20 13 8 5 0 0 5 5 8 2 12 7 0 1 0 1 2 0
0 0 0 0 0 0 0 0 0 0 0 0 0 0 0 1 2 2 0 3 5 6 12 9 0 0 1 3 1 0 0 0 0 0 1 2 1 1
0 0 0 0 0 0 0 0 0 0 0 0 0 0 0 2 3 2 0 0 0 0 0 1 4 0 0 1 0 0 2 2 0 0 0 0 0 0
0 0 0 0 0 0 0 0 0 0 0 0 0 0 0 1 2 2 0 0 1 1 0 0 0 0 0 0 0 1 2 1 0 0 0 0 0 0
CIN
0 0 0 0 0 0 0 0 0 0 0 0 0 0 0 0 0 0 0 0 0 0 0 0 0 0 0 0 0 0 -1 -1 -1 0 0 0 0 0
0 0 0 0 0 0 0 0 0 0 0 0 0 0 0 0 0 0 0 0 0 0 0 0 0 0 0 0 0 0 0 0 0 0 -1 0 0 0
0 0 0 0 0 0 0 0 0 0 0 0 0 0 0 0 0 0 0 0 0 0 0 0 0 0 0 0 0 0 0 0 0 -1 -1 -1 0 -1
0 0 0 0 0 0 0 0 0 0 0 0 0 0 0 0 0 0 0 0 0 0 0 0 0 0 0 0 0 0 0 0 -1 0 -1 -1 -1 -1
0 0 0 0 0 0 0 0 0 0 0 0 0 0 0 0 0 0 0 0 0 0 0 0 0 0 0 0 0 0 0 0 0 0 0 0 0 0
0 0 0 0 0 0 0 0 0 0 0 0 0 0 0 0 0 0 0 0 0 0 0 0 0 0 0 0 0 0 0 0 0 0 0 0 0 0
0 0 0 0 0 0 0 0 0 0 0 0 0 0 0 0 0 0 0 0 0 0 0 0 0 0 0 0 0 0 0 0 0 0 0 0 0 -1
-3 0 0 -1 0 0 0 0 0 0 0 0 0 0 0 0 0 0 0 0 0 0 0 0 0 0 0 0 0 0 0 0 0 0 0 0 -1 -5
-1 0 0 0 0 0 0 -1 0 0 0 0 0 0 0 0 0 0 0 0 0 0 0 0 0 0 0 0 0 0 0 0 0 -10 -3 -3 -2 -1
-1 0 -1 -5 0 0 0 0 0 0 0 0 0 0 0 0 0 0 0 0 0 0 0 0 0 0 0 0 0 0 0 0 0 -2 -11 -7 -4 -10
-6 -4 0 -3 0 0 0 0 0 0 0 0 0 0 0 0 0 0 0 0 0 0 0 0 0 0 0 0 0 -1 -1 0 0 -1 0 -5 -16 -13
-2 0 -1 0 0 0 0 0 0 0 0 0 0 0 0 0 0 0 0 0 0 0 0 0 0 0 0 0 0 0 -1 0 0 0 0 -26 -12 -1
0 0 0 0 0 0 0 0 0 0 0 0 0 0 0 0 0 0 0 0 0 0 0 0 0 0 0 0 0 0 0 -1 0 0 -24 -16 -9 -6
0 0 0 -3 0 -3 0 0 0 0 0 0 0 0 0 0 0 0 0 0 0 0 0 0 0 0 0 0 -1 0 0 -1 -6 -28 -12 -10 -4 0
0 0 0 0 0 -6 0 0 0 0 0 0 0 0 0 0 0 0 0 0 0 0 0 0 0 0 0 0 0 0 0 0 -3 -2 0 0 0 0
-4 0 -1 -9 0 -4 0 0 0 0 0 0 0 0 0 0 0 0 0 0 0 -1 -10 0 0 0 -1 -3 -7 0 0 0 -1 -1 -8 0 0 0
0 -5 0 0 0 0 0 0 0 0 0 0 0 0 0 0 0 0 0 0 -1 -2 -7 -4 0 -11 -6 -2 0 -3 -4 -2 -4 -6 0 0 0 0
0 -1 0 0 0 0 0 0 0 0 0 0 0 0 0 0 0 0 0 0 -7 0 -5 0 -16 -1 0 -2 -21 -10 -5 -3 -1 0 -2 -4 0 0
0 0 0 0 0 0 0 0 0 0 0 0 0 0 0 0 0 0 0 -21 -7 0 -10 -4 -5 0 0 0 -1 -17 -1 0 -1 -1 0 0 0 0
0 0 0 0 0 0 0 0 0 0 0 0 0 0 0 0 0 0 0 -7 0 -2 -1 -7 -4 -10 -1 0 0 -5 -1 -2 0 0 0 0 0 0
0 0 0 0 0 0 0 0 0 0 0 0 0 0 0 0 0 0 0 -12 -8 -4 -1 -2 -6 0 -9 -2 0 0 0 0 0 0 0 0 0 0
0 0 0 0 0 0 0 0 0 0 0 0 0 0 0 0 0 0 0 0 0 0 0 -10 -20 0 0 -11 0 0 0 0 0 0 0 0 0 0
0 0 0 0 0 0 0 0 0 0 0 0 0 0 0 0 0 0 0 0 0 0 0 0 0 0 0 0 0 0 0 0 0 0 0 0 0 0
Wind_Speed
47 47 47 46 43 42 38 35 35 39 37 32 29 25 24 23 22 21 21 23 25 26 27 27 28 29 30 32 32 33 34 35 34 34 34 33 32 31
46 47 47 46 45 43 41 38 36 37 40 31 29 26 23 23 21 22 23 24 27 27 27 30 31 31 31 32 34 35 36 35 33 33 33 32 31 32
46 46 48 46 47 45 42 41 38 36 40 34 29 25 24 22 22 23 25 27 28 28 30 33 33 33 34 35 35 36 35 33 33 33 32 31 30 31
46 45 46 45 46 45 43 43 40 36 36 37 30 27 25 24 24 28 30 29 29 30 33 36 36 36 35 34 35 35 34 32 32 31 31 30 30 31
45 46 46 43 45 44 45 42 41 37 34 34 32 29 27 26 27 29 30 31 31 33 35 35 35 34 33 34 34 33 32 32 31 30 29 29 27 29
44 44 45 44 45 41 42 42 40 37 35 34 31 29 28 27 27 29 32 31 35 34 33 34 34 34 33 33 32 30 30 28 27 26 26 26 27 29
43 43 43 43 44 43 41 43 38 37 35 33 32 30 30 28 28 27 30 33 35 34 36 36 35 34 33 32 32 30 28 27 27 26 25 25 26 27
45 42 42 43 46 43 43 44 39 38 36 33 32 31 30 29 28 28 30 32 36 30 30 34 32 34 33 32 30 28 26 24 23 23 25 23 20 19
44 42 42 39 41 43 45 39 39 37 34 30 30 29 29 27 27 29 30 30 34 33 36 41 33 34 31 29 26 25 22 21 22 23 22 21 20 20
47 45 46 40 39 38 40 41 37 35 31 28 27 26 26 25 25 28 30 32 35 35 32 39 35 33 31 28 25 24 22 21 21 21 21 19 19 17
40 47 48 45 44 44 40 36 33 31 28 25 23 24 23 24 26 28 31 33 39 38 31 32 34 35 31 28 26 22 21 22 21 19 17 16 18 17
41 48 52 49 44 41 34 32 30 28 24 21 21 22 25 27 29 31 32 36 37 39 31 30 30 28 31 24 23 21 20 20 18 16 15 15 13 15
44 44 42 44 45 40 36 28 24 22 22 21 22 24 27 30 31 30 29 28 31 31 30 27 27 24 24 26 24 17 15 13 13 13 14 15 14 14
40 38 40 42 39 46 38 25 20 20 20 21 23 26 28 30 31 31 27 24 23 24 24 24 25 21 19 17 17 11 6 6 8 11 8 22 34 30
27 34 39 43 41 37 30 26 21 19 20 21 23 24 25 28 31 27 24 19 18 21 28 22 15 11 7 8 8 7 2 5 6 18 29 29 31 32
29 33 32 27 31 30 25 21 20 19 19 18 19 22 25 26 24 17 18 20 18 23 30 19 10 12 15 4 5 4 8 21 31 27 29 31 34 36
37 29 30 29 31 26 20 19 16 14 14 15 17 20 22 21 12 18 18 17 18 20 21 19 18 6 11 6 11 25 26 28 31 31 33 35 35 33
18 27 33 33 28 24 20 15 13 11 12 12 15 17 18 16 18 19 18 18 21 21 20 5 3 16 16 13 18 24 27 31 36 36 37 40 36 31
28 32 29 26 23 17 15 12 12 9 9 12 13 13 13 17 15 17 22 24 25 28 29 25 26 27 23 24 23 22 33 36 37 34 34 34 32 26
25 23 24 22 17 16 13 9 4 7 9 10 10 9 11 12 8 20 25 28 30 32 28 26 26 29 25 26 31 27 27 36 36 32 32 28 26 23
22 21 21 19 17 11 4 3 4 7 8 9 8 6 8 6 7 18 26 31 32 32 32 30 28 29 27 28 31 31 28 29 30 30 31 29 29 28
21 21 20 16 10 4 4 4 6 6 7 7 9 5 4 4 6 15 23 31 31 33 33 33 31 28 29 29 31 30 28 26 21 19 20 26 28 29
21 20 15 7 6 5 6 7 6 5 7 7 7 5 3 3 5 11 14 21 27 28 29 30 30 28 29 32 33 29 29 28 26 21 15 16 21 21
Wind_Direction
273 269 267 266 266 267 267 269 269 272 274 278 279 280 275 276 278 280 284 287 290 292 293 295 297 297 296 295 294 294 294 294 294 295 295 296 296 296
276 270 267 265 263 264 264 265 266 268 271 276 277 280 277 276 275 279 283 287 290 292 292 294 296 296 296 295 294 294 293 293 293 294 294 294 294 295
277 272 267 265 262 262 263 263 263 264 266 272 274 274 278 275 274 279 285 288 290 291 292 294 295 295 295 294 294 294 293 292 292 292 292 292 292 292
278 273 269 264 262 260 261 260 260 260 262 265 268 271 274 276 276 279 284 287 289 291 293 293 294 295 295 295 294 293 293 292 292 291 291 289 289 291
281 275 269 265 262 258 259 258 258 257 258 261 265 269 273 278 279 282 284 286 290 292 294 295 295 296 296 296 295 293 293 292 290 289 290 288 287 290
281 277 270 264 259 259 255 257 256 253 253 256 262 267 273 277 281 283 284 288 290 294 296 297 297 297 296 295 294 293 291 290 288 285 284 284 284 287
280 278 272 265 259 258 257 254 251 250 250 252 258 265 270 275 278 285 287 291 293 295 296 298 299 299 298 296 293 291 288 285 284 280 278 279 281 281
276 280 276 267 259 256 256 252 249 245 246 249 256 263 269 275 280 284 289 293 296 302 301 301 302 300 300 298 294 293 291 284 279 276 276 276 273 275
275 276 275 268 258 250 245 246 247 244 243 246 254 262 270 275 281 285 290 294 295 298 301 300 303 301 300 298 294 292 286 281 278 275 277 272 270 269
268 268 265 263 256 247 249 244 243 242 242 249 256 264 272 278 282 288 293 296 298 301 302 300 303 301 301 297 290 286 280 277 274 277 276 274 270 265
277 265 256 248 241 236 242 236 237 237 242 249 257 266 274 280 286 292 294 298 299 302 304 299 303 302 303 300 293 283 277 271 268 268 268 267 264 261
277 267 247 237 234 230 236 229 228 231 234 246 258 268 276 282 287 291 296 298 302 305 312 303 303 305 307 306 296 289 280 269 258 255 253 256 249 249
271 249 232 221 220 232 226 224 224 226 236 248 260 270 277 283 291 298 303 304 304 301 307 308 308 307 302 307 310 299 281 271 249 250 246 244 239 230
239 228 218 210 209 202 210 214 214 224 236 250 262 270 279 289 297 305 313 313 311 306 309 302 299 299 302 303 310 313 287 247 235 228 223 225 209 214
230 215 203 193 194 197 200 201 211 226 240 251 262 276 289 295 300 317 328 332 334 335 325 299 278 280 282 307 312 290 217 216 196 211 199 201 203 203
206 196 192 184 189 188 193 204 216 229 241 257 273 281 288 297 320 351 353 352 359 359 7 25 87 114 133 310 75 110 190 199 188 191 191 188 185 186
173 176 179 182 183 188 195 204 217 234 252 266 277 278 280 311 28 11 10 18 27 26 33 49 82 229 74 112 166 174 175 176 178 181 179 176 176 177
162 173 175 178 182 187 194 206 223 240 256 270 270 272 273 10 17 7 38 59 52 57 60 32 128 171 170 170 178 173 174 173 170 169 170 166 167 175
170 172 176 179 182 188 197 209 221 248 260 259 263 258 270 23 342 28 67 81 85 94 133 154 162 165 169 169 172 176 168 167 167 171 172 172 176 182
172 172 175 179 181 187 196 209 240 243 243 249 246 248 320 345 263 120 90 110 114 119 147 157 160 162 164 165 160 164 169 162 163 166 169 171 173 174
169 171 175 177 179 185 180 187 221 223 227 226 228 244 318 254 242 153 135 118 130 137 141 151 156 160 160 161 158 158 161 167 169 166 166 167 170 174
169 171 171 174 177 149 162 188 196 211 210 209 197 243 270 249 197 166 153 137 139 136 140 145 152 158 160 162 159 161 164 164 164 164 171 178 180 183
168 170 174 165 166 164 174 178 184 196 196 195 196 217 242 212 178 164 169 163 156 158 157 156 158 161 163 163 162 164 164 166 169 171 177 191 191 190